Home   Weather   Township of Washington   Past weeks
Flag for USA

Past Weather in Township of Washington, Arkansas, USA — Yesterday and Last 2 Weeks

Now
85 °F

Sunny.


Feels Like: 84 °F
Forecast: 81 / 62 °F
Wind: 5 mph from Northwest

Location: Russellville Municipal Airport

Current Time: Aug 4, 2020 at 6:47:50 pm

Latest Report: Aug 4, 2020 at 5:53 pm


Visibility: 10 mi

Pressure: 29.97 "Hg

Humidity: 39%

Dew Point: 57 °F

Location of Township of WashingtonLocation

Past Weather in Township of Washington — Graph

°F

Township of Washington Temperature Yesterday

Maximum temperature yesterday: 88 °F (at 4:53 pm)
Minimum temperature yesterday: 67 °F (at 5:53 am)
Average temperature yesterday: 76 °F

High & Low Weather Summary for the Past Weeks

 TemperatureHumidityPressure
High94 °F (Jul 21, 1:53 pm)97% (Jul 22, 10:37 am)30.12 "Hg (Jul 22, 10:37 am)
Low64 °F (Aug 2, 2:53 am)42% (Aug 3, 4:53 pm)29.75 "Hg (Jul 31, 1:53 am)
Average79 °F78%29.95 "Hg
* Reported Jul 20 4:53 pm — Aug 4 4:53 pm, Township of Washington. Weather by CustomWeather, © 2020

Note: Actual official high and low records may vary slightly from our data, if they occured in-between our weather recording intervals... More about our weather records

Township of Washington Weather History for the Previous 24 Hours

Scroll right to see more
 ConditionsComfort  
Time TempWeatherWind HumidityBarometerVisibility
4:53 pm
Tue, Aug 4
85 °FPartly sunny.6 mph42%29.98 "Hg10 mi
3:53 pm82 °FPassing clouds.No wind48%29.99 "Hg10 mi
2:53 pm82 °FScattered clouds.7 mph44%30.01 "Hg10 mi
1:53 pm83 °FPassing clouds.6 mph48%30.02 "Hg9 mi
12:53 pm82 °FPartly sunny.No wind49%30.03 "Hg10 mi
11:53 am79 °FScattered clouds.No wind60%30.04 "Hg10 mi
10:53 am77 °FPassing clouds.5 mph64%30.04 "Hg10 mi
10:10 am74 °FPartly sunny.No wind69%30.06 "Hg10 mi
9:53 am74 °FOvercast.No wind71%30.03 "Hg10 mi
8:53 am72 °FSunny.5 mph71%30.03 "Hg10 mi
7:53 am69 °FPassing clouds.5 mph76%30.03 "Hg10 mi
6:53 am67 °FPartly sunny.3 mph79%30.01 "Hg10 mi
5:53 am67 °FClear.3 mph79%29.99 "Hg10 mi
4:53 am67 °FClear.3 mph79%29.99 "Hg10 mi
3:53 am69 °FPassing clouds.5 mph73%29.99 "Hg10 mi
2:53 am72 °FPassing clouds.3 mph68%29.99 "Hg10 mi
1:53 am73 °FPassing clouds.3 mph64%30.00 "Hg10 mi
12:53 am73 °FPassing clouds.5 mph64%29.99 "Hg10 mi
11:53 pm
Mon, Aug 3
73 °FPassing clouds.5 mph71%29.98 "Hg10 mi
10:53 pm71 °FClear.No wind81%29.97 "Hg10 mi
9:53 pm74 °FClear.No wind74%29.96 "Hg10 mi
8:53 pm78 °FClear.5 mph62%29.93 "Hg10 mi
7:53 pm83 °FPartly sunny.7 mph53%29.91 "Hg10 mi
6:53 pm86 °FScattered clouds.6 mph46%29.90 "Hg10 mi
Weather by CustomWeather, © 2020

See weather overview